www.pogodaiklimat.ru

Погода и климат >> Архив погоды >> Франция >> Осер


ПОГОДА в Осере

  • Прогноз погоды в Осере
  • Монитор погоды в Осере

АРХИВ ПОГОДЫ в Осере

Время (UTC), дата Ветер
(напр.,м/с)
 
Видим.   Явления Облачность Т
(С)
Тd
(С)
f
(%)
Тe
(С)
Тes
(С)
Комфортность P
(гПа)
Po
(гПа)
Тmin
(С)
Tmax
(С)
R
(мм)
R24
(мм)
S
(см)
22 9.09 ЮЗ 2 20 км 10/10 2000 м
[]
+14.6 +5.7 55 +14 +14 1014.1 996.0
23 9.09 ЮЗ 1 20 км 10/10 2000 м
[]
+13.1 +7.1 67 +13 +13 1014.4 996.2 0.0
00 10.09 ЮВ 1
{4}
20 км дождь 10/10 1500 м
[]
+12.3 +8.4 77 +12 +12 1014.6 996.3 0.2 0
01 10.09 штиль 0 20 км 10/10
[]
+11.6 +8.1 79 +11 +11 1014.3 996.0 0.0
02 10.09 штиль 0 20 км 10/10 2000 м
[]
+10.9 +7.8 81 +10 +10 1014.2 995.8
03 10.09 С 1
{2}
20 км 9/0
[]
+9.8 +7.2 84 +10 +10 1014.1 995.7 0.0 0
04 10.09 штиль 0 20 км н/о +8.7 +7.0 89 +8 +8 1014.5 996.0
05 10.09 СЗ 1 20 км 9/9
[]
+8.2 +7.0 92 +8 +8 1014.9 996.3
06 10.09 З 1
{2}
20 км н/о +7.9 +6.8 93 +8 +8 1015.9 997.3 +7.3 +17.0 0.2 0
07 10.09 З 1 20 км н/о +10.4 +9.3 93 +11 +11 1016.2 997.8
08 10.09 С 1 20 км н/о +14.9 +8.4 65 +16 +16 1016.5 998.3
09 10.09 С 2
{5}
20 км н/о +17.8 +7.5 51 +19 +19 1017.2 999.2 0
10 10.09 СВ 2 20 км н/о +19.8 +6.2 41 +21 +21 комфорт 1017.1 999.2
11 10.09 С 2 20 км н/о +20.8 +5.2 36 +22 +22 комфорт 1017.1 999.3
12 10.09 СВ 2
{8}
20 км н/о +21.8 +5.2 34 +22 +22 комфорт 1017.3 999.5 0
13 10.09 С 3 20 км н/о +21.9 +3.0 29 +22 +22 комфорт 1017.3 999.5
14 10.09 С 2 20 км н/о +22.7 +3.7 29 +23 +23 комфорт 1017.1 999.4
15 10.09 С 3
{9}
20 км н/о +22.5 +3.6 29 +22 +22 комфорт 1017.4 999.7 0
16 10.09 СВ 2 20 км н/о +21.7 +3.4 30 +22 +22 комфорт 1018.0 1000.2
17 10.09 СВ 2 20 км н/о +21.1 +3.8 32 +21 +21 комфорт 1018.6 1000.8
18 10.09 СВ 1
{7}
20 км н/о +19.3 +4.2 37 +21 +21 комфорт 1019.4 1001.4 +7.8 +22.7 0
19 10.09 С 1 20 км н/о +16.7 +4.0 43 +18 +18 1020.1 1002.0
20 10.09 З 1 20 км н/о +14.2 +4.7 53 +15 +15 1020.6 1002.3
21 10.09 З 1
{2}
20 км н/о +11.6 +4.1 60 +13 +13 1021.8 1003.3 0
22 10.09 З 1 20 км н/о +10.4 +3.9 64 +11 +11 1022.2 1003.6
23 10.09 ЮЗ 1 20 км н/о +8.7 +3.5 70 +9 +9 1022.4 1003.7
00 11.09 ЮЗ 1
{2}
20 км н/о +7.8 +3.3 73 +8 +8 1022.7 1003.9 0
01 11.09 ЮЗ 1 20 км н/о +7.1 +3.3 77 +7 +7 1022.8 1004.0
02 11.09 Ю 1 20 км н/о +7.2 +4.0 80 +7 +7 1022.9 1004.1
03 11.09 штиль 0
{2}
20 км н/о +6.5 +3.3 80 +6 +6 1023.2 1004.4 0
04 11.09 ЮВ 1 20 км 10/10
[]
+6.5 +4.0 84 +7 +7 1023.9 1005.0
05 11.09 В 1 20 км 10/10
[]
+7.0 +4.5 84 +7 +7 1024.5 1005.7
06 11.09 штиль 0
{2}
20 км 10/0
[]
+7.8 +4.6 80 +7 +7 1025.1 1006.3 +6.0 +19.3 0
07 11.09 ЮВ 1 20 км 10/10
[]
+9.9 +6.1 77 +10 +10 1025.2 1006.6
08 11.09 СВ 1 20 км 9/9
[]
+11.3 +6.4 72 +12 +13 1025.9 1007.3
09 11.09 штиль 0
{2}
20 км 10/0
[]
+14.0 +7.1 63 +14 +14 1026.2 1007.8 0
10 11.09 СЗ 1 20 км 8/8
[]
+16.7 +7.1 53 +18 +21 1026.3 1008.1
11 11.09 З 1 20 км н/о +21.0 +7.2 41 +23 +23 комфорт 1025.7 1007.7
12 11.09 З 2
{7}
20 км н/о +22.8 +6.1 34 +23 +23 комфорт 1025.3 1007.5 0
13 11.09 З 2 20 км н/о +23.3 +6.1 33 +24 +24 комфорт 1025.2 1007.4
14 11.09 З 2 20 км 8/8
[]
+24.5 +6.3 31 +24 +26 комфорт 1025.0 1007.3
15 11.09 СЗ 2
{9}
20 км н/о +24.0 +7.2 34 +24 +24 комфорт 1025.0 1007.2 0
16 11.09 СЗ 2 20 км н/о +23.9 +6.6 33 +24 +24 комфорт 1025.4 1007.6
17 11.09 З 2 20 км н/о +23.6 +7.2 35 +24 +24 комфорт 1025.5 1007.7
18 11.09 СЗ 1
{4}
20 км н/о +21.7 +7.1 39 +23 +23 комфорт 1025.9 1008.0 +7.8 +24.7 0
19 11.09 ЮЗ 1 20 км н/о +18.7 +6.8 46 +21 +21 комфорт 1026.7 1008.6
20 11.09 ЮЗ 1 20 км н/о +15.6 +7.1 57 +16 +16 1027.4 1009.1
21 11.09 Ю 1
{3}
20 км н/о +14.9 +6.5 57 +16 +16 1028.0 1009.6 0
22 11.09 Ю 1 20 км н/о +13.2 +6.5 64 +14 +14 1028.7 1010.2
23 11.09 Ю 1 20 км н/о +13.1 +6.7 65 +14 +14 1028.8 1010.3
00 12.09 ЮВ 1
{2}
20 км н/о +11.9 +6.2 68 +13 +13 1029.2 1010.6 0
01 12.09 ЮВ 1 20 км н/о +11.1 +6.4 73 +12 +12 1029.8 1011.1
02 12.09 штиль 0 20 км н/о +11.0 +6.5 74 +10 +10 1029.7 1011.0
03 12.09 ЮВ 1
{2}
20 км н/о +9.8 +6.3 79 +9 +9 1029.9 1011.2 0
04 12.09 ЮВ 1 20 км н/о +10.2 +6.7 79 +11 +11 1029.8 1011.1
05 12.09 штиль 0 20 км н/о +9.4 +6.1 80 +9 +9 1030.8 1012.0
06 12.09 ЮВ 1
{2}
20 км н/о +11.0 +8.0 82 +11 +11 1031.1 1012.4 +9.0 +21.6 0
07 12.09 ЮВ 1 20 км н/о +14.5 +8.2 66 +15 +15 1031.4 1012.9
08 12.09 ЮВ 1 20 км н/о +18.4 +9.5 56 +20 +20 1031.8 1013.6
09 12.09 В 1
{3}
20 км н/о +20.6 +11.8 57 +24 +24 комфорт 1031.9 1013.8 0
10 12.09 Ю 1 20 км н/о +22.7 +13.2 55 +26 +26 жарко 1031.8 1013.9
11 12.09 СВ 1 20 км н/о +23.8 +13.3 52 +26 +26 жарко 1031.5 1013.6
12 12.09 З 1
{5}
18 км н/о +25.3 +13.2 47 +27 +27 жарко 1031.3 1013.5 0
13 12.09 Ю 1 20 км н/о +26.6 +13.3 44 +29 +29 жарко 1030.8 1013.1
14 12.09 З 1 20 км н/о +26.8 +12.8 42 +28 +28 жарко 1030.4 1012.7
15 12.09 СЗ 1
{5}
20 км н/о +27.6 +13.2 41 +29 +29 жарко 1030.0 1012.4 0
16 12.09 СВ 1 20 км н/о +26.8 +13.2 43 +29 +29 жарко 1029.9 1012.2
17 12.09 С 1 20 км н/о +26.2 +13.3 45 +28 +28 жарко 1030.0 1012.3
18 12.09 С 2
{4}
20 км н/о +24.2 +13.4 51 +26 +26 жарко 1030.2 1012.4 +11.1 +27.9 0
19 12.09 С 1 20 км н/о +22.3 +13.6 58 +25 +25 комфорт 1030.8 1012.9
20 12.09 СВ 1 20 км н/о +20.9 +13.8 64 +25 +25 комфорт 1031.2 1013.2
21 12.09 СВ 1
{4}
20 км н/о +19.8 +13.9 69 +23 +23 комфорт 1031.5 1013.4 0
22 12.09 С 1 20 км н/о +17.9 +13.2 74 +20 +20 1031.8 1013.6
23 12.09 штиль 0 20 км н/о +16.3 +13.2 82 +16 +16 1031.7 1013.4
00 13.09 ЮЗ 1
{2}
20 км н/о +14.1 +11.3 83 +14 +14 1031.9 1013.4 0
01 13.09 Ю 1 20 км н/о +13.4 +11.3 87 +14 +14 1031.9 1013.4
02 13.09 Ю 1 20 км н/о +12.5 +10.4 87 +13 +13 1031.9 1013.3
03 13.09 З 1
{2}
20 км н/о +12.4 +10.6 89 +13 +13 1032.1 1013.5 0
04 13.09 С 1 20 км н/о +13.0 +11.9 93 +14 +14 1031.7 1013.2
05 13.09 штиль 0 20 км н/о +11.4 +10.5 94 +11 +11 1032.3 1013.6
06 13.09 СЗ 1
{1}
20 км н/о +12.4 +11.6 95 +13 +13 1032.5 1013.9 +11.2 +24.2 0
07 13.09 штиль 0 20 км н/о +15.7 +14.7 94 +15 +15 1032.5 1014.1
08 13.09 С 1 20 км н/о +19.0 +15.3 79 +21 +21 комфорт 1033.1 1014.9
09 13.09 СВ 2
{6}
20 км н/о +21.4 +15.9 71 +25 +25 комфорт 1032.7 1014.7 0
10 13.09 СВ 2 20 км н/о +22.6 +15.4 64 +27 +27 душно 1032.3 1014.4
11 13.09 С 2 20 км 10/10 870 м
[]
+22.7 +15.8 65 +27 +27 душно 1032.1 1014.2
12 13.09 С 2
{7}
20 км н/о +23.9 +15.7 60 +27 +27 жарко 1031.6 1013.8 0
13 13.09 СВ 2 20 км 8/8 1050 м
[]
+25.1 +15.7 56 +28 +30 жарко 1031.2 1013.4
14 13.09 С 2 20 км н/о +25.0 +15.3 55 +28 +28 жарко 1031.1 1013.3
15 13.09 СВ 2
{8}
20 км н/о +25.6 +14.7 51 +28 +28 жарко 1030.4 1012.7 0
16 13.09 СВ 2 20 км н/о +25.4 +13.6 48 +28 +28 жарко 1030.0 1012.3
17 13.09 СВ 2 20 км н/о +24.4 +13.6 51 +27 +27 жарко 1030.3 1012.5
18 13.09 СВ 2
{6}
20 км н/о +22.5 +14.1 59 +26 +26 жарко 1030.1 1012.2 +12.4 +25.9 0
19 13.09 СВ 2 20 км н/о +20.6 +14.3 67 +24 +24 комфорт 1030.9 1012.9
20 13.09 С 1 20 км н/о +18.8 +13.9 73 +21 +21 комфорт 1031.1 1013.0
21 13.09 СВ 2
{6}
20 км н/о +18.1 +14.0 77 +19 +19 1031.2 1013.0 0
22 13.09 СВ 1 20 км н/о +17.0 +13.5 80 +18 +18 1031.1 1012.8
23 13.09 С 1 20 км н/о +16.2 +13.5 84 +17 +17 1030.8 1012.5
00 14.09 СВ 1
{5}
20 км н/о +16.0 +13.5 85 +17 +17 1030.6 1012.3 0
01 14.09 С 1 20 км н/о +15.3 +13.1 87 +17 +17 1030.7 1012.3
02 14.09 С 1 20 км н/о +14.4 +12.8 90 +15 +15 1030.1 1011.7
03 14.09 С 1
{4}
20 км н/о +13.7 +12.4 92 +15 +15 1030.0 1011.5 0
04 14.09 С 1 19 км н/о +13.3 +12.4 94 +14 +14 1029.9 1011.4
05 14.09 СЗ 1 20 км н/о +13.1 +12.3 95 +14 +14 1030.0 1011.5
06 14.09 С 1
{3}
19 км н/о +13.3 +12.5 95 +14 +14 1030.4 1011.9 +12.8 +22.5 0
07 14.09 СВ 1 19 км н/о +15.0 +14.4 96 +16 +16 1030.4 1012.0
08 14.09 С 2 17 км н/о +16.6 +14.6 88 +17 +17 1030.2 1011.9
09 14.09 СЗ 1
{5}
20 км н/о +18.2 +14.3 78 +20 +20 1029.8 1011.6 0
10 14.09 С 1 20 км н/о +21.4 +14.8 66 +24 +24 комфорт 1028.9 1011.0
11 14.09 С 1 20 км н/о +24.1 +15.0 57 +27 +27 жарко 1028.2 1010.4
12 14.09 СВ 1
{6}
20 км н/о +26.0 +15.4 52 +29 +29 душно 1027.4 1009.8 0
13 14.09 С 2 20 км н/о +26.1 +14.5 49 +29 +29 жарко 1026.8 1009.2
14 14.09 С 2 20 км н/о +27.1 +14.5 46 +30 +30 душно 1026.5 1008.9
15 14.09 С 2
{6}
20 км н/о +27.0 +14.4 46 +29 +29 жарко 1025.9 1008.3 0
16 14.09 С 2 20 км н/о +27.1 +14.1 45 +29 +29 жарко 1025.6 1008.0
17 14.09 С 2 20 км н/о +26.1 +13.9 47 +28 +28 жарко 1025.6 1008.0
18 14.09 СВ 1
{6}
20 км н/о +24.1 +13.6 52 +26 +26 жарко 1025.6 1007.9 +13.3 +27.6 0
19 14.09 С 1 20 км н/о +21.8 +13.4 59 +25 +25 комфорт 1025.7 1007.8
20 14.09 С 1 20 км н/о +20.3 +13.5 65 +24 +24 комфорт 1026.0 1008.0
21 14.09 З 1
{2}
20 км н/о +18.6 +13.5 72 +21 +21 комфорт 1026.3 1008.2 0
22 14.09 З 1 20 км н/о +16.8 +12.7 77 +18 +18 1026.1 1007.9
23 14.09 ЮЗ 1 20 км н/о +15.7 +12.3 80 +17 +17 1025.6 1007.3
00 15.09 ЮЗ 1
{2}
20 км н/о +14.1 +11.3 83 +15 +15 1025.6 1007.2 0
01 15.09 ЮЗ 1 20 км н/о +13.5 +11.2 86 +14 +14 1025.4 1007.0
02 15.09 Ю 1 20 км н/о +12.4 +10.5 88 +13 +13 1025.2 1006.7
03 15.09 штиль 0
{1}
20 км н/о +11.9 +10.3 90 +11 +11 1025.2 1006.7 0
04 15.09 З 1 19 км н/о +11.8 +10.5 92 +12 +12 1024.9 1006.4
05 15.09 ЮВ 1 20 км н/о +11.2 +10.1 93 +12 +12 1024.9 1006.4
06 15.09 штиль 0
{2}
20 км н/о +11.6 +10.7 94 +11 +11 1025.0 1006.5 +11.0 +24.1 0
07 15.09 СЗ 1 20 км н/о +14.6 +12.6 88 +16 +16 1024.9 1006.6
08 15.09 В 1 20 км н/о +19.0 +13.4 70 +22 +22 комфорт 1024.9 1006.9
09 15.09 СВ 1
{2}
20 км н/о +21.9 +14.5 63 +25 +25 комфорт 1024.8 1007.0 0
10 15.09 СЗ 1 19 км н/о +24.0 +14.7 56 +27 +27 жарко 1024.4 1006.7
11 15.09 Ю 1 20 км н/о +26.8 +14.9 48 +29 +29 жарко 1023.7 1006.2
12 15.09 В 1
{3}
20 км н/о +28.8 +14.2 41 +31 +31 жарко 1022.9 1005.5 0
13 15.09 С 1 20 км н/о +29.2 +15.0 42 +32 +32 душно 1022.3 1004.9
14 15.09 З 1 20 км н/о +30.0 +12.4 34 +31 +31 жарко 1021.5 1004.2
15 15.09 З 1
{5}
20 км н/о +30.1 +13.0 35 +31 +31 жарко 1020.8 1003.5 0
16 15.09 С 2 20 км н/о +29.8 +12.2 34 +31 +31 жарко 1020.5 1003.2
17 15.09 С 1 20 км н/о +28.9 +12.3 36 +30 +30 жарко 1020.3 1002.9
18 15.09 С 1
{5}
20 км н/о +25.7 +12.2 43 +27 +27 жарко 1020.6 1003.0 +11.6 +30.5 0
19 15.09 С 1 20 км н/о +23.2 +12.8 52 +26 +26 жарко 1021.2 1003.5
20 15.09 С 1 20 км н/о +21.9 +12.4 55 +24 +24 комфорт 1021.7 1003.9
21 15.09 СЗ 1
{2}
20 км н/о +20.3 +11.8 58 +24 +24 комфорт 1022.0 1004.1 0
22 15.09 СЗ 1 20 км н/о +18.9 +10.5 58 +21 +21 комфорт 1022.2 1004.2
23 15.09 штиль 0 20 км н/о +17.8 +10.9 64 +18 +18 1022.2 1004.1
00 16.09 З 1
{2}
20 км н/о +15.4 +10.2 71 +17 +17 1022.1 1003.9 0
01 16.09 ЮЗ 1 20 км н/о +14.4 +10.0 75 +16 +16 1022.0 1003.7
02 16.09 З 1 20 км н/о +13.4 +9.6 78 +14 +14 1021.6 1003.3
03 16.09 ЮЗ 1
{2}
20 км н/о +12.7 +9.9 83 +14 +14 1021.4 1003.0 0
04 16.09 З 1 20 км н/о +11.3 +8.9 85 +12 +12 1021.4 1002.9
05 16.09 З 1 20 км н/о +11.2 +9.1 87 +12 +12 1021.4 1002.9
06 16.09 ЮЗ 1
{2}
20 км н/о +11.2 +9.1 87 +12 +12 1021.3 1002.8 +10.6 +25.6 0
07 16.09 ЮЗ 1 20 км н/о +14.6 +10.8 78 +16 +16 1021.6 1003.3
08 16.09 С 1 20 км н/о +18.1 +10.7 62 +20 +20 1021.7 1003.7
09 16.09 С 1
{3}
20 км н/о +21.6 +10.4 49 +23 +23 комфорт 1021.5 1003.7 0
10 16.09 С 2 20 км н/о +24.1 +9.3 39 +25 +25 комфорт 1021.3 1003.6
11 16.09 С 1 20 км н/о +26.3 +9.2 34 +27 +27 жарко 1020.6 1003.1
12 16.09 С 2
{7}
18 км н/о +27.2 +6.6 27 +27 +27 жарко 1020.3 1002.8 0
13 16.09 С 2 20 км н/о +28.3 +8.0 28 +28 +28 жарко 1019.5 1002.1
14 16.09 С 2 20 км н/о +28.8 +8.5 28 +28 +28 жарко 1019.0 1001.6
15 16.09 С 2
{6}
20 км н/о +28.7 +6.1 24 +28 +28 жарко 1018.6 1001.2 0
16 16.09 С 2 20 км н/о +27.8 +6.5 26 +27 +27 жарко 1018.3 1000.9
17 16.09 СЗ 1 20 км н/о +26.5 +6.5 28 +26 +26 жарко 1018.4 1000.9
18 16.09 С 1
{4}
20 км н/о +23.7 +7.3 35 +24 +24 комфорт 1018.8 1001.1 +11.3 +29.3 0
19 16.09 С 1 20 км н/о +21.3 +7.9 42 +22 +22 комфорт 1019.5 1001.7
20 16.09 С 1 20 км н/о +20.1 +8.4 47 +22 +22 комфорт 1019.8 1001.9
21 16.09 ЮЗ 1
{2}
20 км н/о +17.1 +8.2 56 +19 +19 1020.1 1002.0 0

 

Местоположение метеостанции Осер (Франция): широта 47.83 долгота 3.55 высота над уровнем моря 212 м.

В архиве по умолчанию представлена погода в Осере за последнюю неделю. Архивные данные за месяц целиком и за предыдущие месяцы, начиная с января 2011 года, Вы можете получить, выбрав интересующий диапазон дат из раскрывающегося списка и нажав кнопку "Ввод!".


*Определитесь, кто Вы:
робот инопланетянин человек

Внимание! Время в таблицах - всемирное. Для получения местного времени необходимо прибавить поправку, которая равна 1 ч.

Смотрите также архив погоды в соседних городах и на ближайших метеорологических станциях:

Погода в Труа (Франция) (66 км)
Погода на Базе ВВС Lanveoc Poulmic (Франция) (77 км)
Погода в Невере (Франция) (98 км)
Погода в Мелене (Франция) (109 км)
Погода в Аворе (Франция) (111 км)
Погода в Париж Ватри аэропорту (Франция) (115 км)
Погода в Бурже (Франция) (123 км)
Погода в Дижоне (Франция) (131 км)
Погода в Париж Орли аэропорту (Франция) (132 км)
Погода в Лангре (Франция) (133 км)

Пояснения к столбцам:

Ветер - указаны скорость ветра в м/с - средняя за 10 мин, порывы в срок и между сроками (в фигурных скобках) и направление, откуда дует ветер: С - северный, СВ - северо-восточный, В - восточный, ЮВ - юго-восточный, Ю - южный, ЮЗ - юго-западный, З - западный, СЗ - северо-западный.
Видимость - горизонтальная дальность видимости в метрах или километрах. При видимости от 1 до 10 км при отсутствии осадков обычно наблюдается дымка, при ухудшении видимости до 1 км и менее - туман. В сухую погоду видимость может ухудшаться дымом, пылью или мглою.
Явления - указаны атмосферные явления, наблюдавшиеся в срок или в последний час перед сроком; фигурными скобками обозначены явления, наблюдавшиеся между сроками (за 1-3 часа до срока); квадратными скобками обозначены град или гололедные отложения с указанием их диаметра в мм.
Облачность - указаны через наклонную черту общая и нижняя облачность в баллах и высота нижней границы облаков в метрах; квадратными скобками обозначены формы облаков: Ci - перистые, Cs - перисто-слоистые, Cc - перисто-кучевые, Ac - высококучевые, As - высокослоистые, Sc - слоисто-кучевые, Ns - слоисто-дождевые, Cu - кучевые, Cb - кучево-дождевые. Подробнее классификацию облаков см. в Атласе облаков (PDF).
T - Температура воздуха - температура, измеренная на высоте 2 м над землей.
Td - Температура точки росы - температура, при понижении до которой содержащийся в воздухе водяной пар достигнет насыщения.
f - Относительная влажность воздуха - влажноcть воздуха, измеренная на высоте 2 м над землей.
Te - Эффективная температура - температура, которую ощущает одетый по сезону человек в тени. Характеристика душности погоды. При расчете учитывается влияние влажности воздуха и скорости ветра на теплоощущения человека.
Tes - Эффективная температура на солнце - температура, которую ощущает человек, с поправкой на солнечный нагрев. Характеристика знойности погоды. Зависит от высоты солнца над горизонтом, облачности и скорости ветра. Ночью, в пасмурную погоду, а также при ветре 12 м/с и более поправка равна нулю.
P - Атмосферное давление - приведенное к уровню моря атмосферное давление.
Po - Атмосферное давление - измеренное на уровне метеостанции атмосферное давление.
Tmin - Минимальная температура - минимум температуры воздуха на высоте 2 м над землей.
Tmax - Максимальная температура - максимум температуры воздуха на высоте 2 м над землей.
R - Количество осадков - Количество выпавших осадков за период времени, мм. При наведении курсора мыши на число - период времени, за который выпало указанное количество осадков.
R24 - Количество осадков - Количество выпавших осадков за 24 часа, мм.
S - Снежный покров - Высота снежного покрова, см. При наведении курсора мыши на число - состояние снежного покрова и степень покрытия местности в баллах.